Location: La Guerche
(47.9411°N, 1.2287°W)
Time: 20:09:14
(UTC+00:00)

Daily predictions for brighter satellites

Satellite Brightness Start Highest point End
(mag) Time Altitude Azimuth Time Altitude Azimuth Time Altitude Azimuth
BREEZE-M DEB (TANK) 4.5 19:52:18 10° WNW 19:55:54 79° NNE 20:06:45 10° E
BREEZE-M DEB (TANK) 3.8 19:53:04 10° W 19:57:23 69° S 20:04:08 10° ESE
Cosmos 968 Rocket 3.8 19:52:45 10° S 19:57:44 46° ESE 20:02:45 10° NNE
ATLAS 5 CENTAUR R/B 2.9 19:53:40 10° NNW 19:58:48 44° NE 20:04:50 10° ESE
BREEZE M DEB (TANK) 3.8 19:59:48 10° WSW 20:03:17 74° SSE 20:14:07 10° ENE
Cosmos 1486 Rocket 4.4 20:00:16 10° S 20:05:17 44° ESE 20:10:21 10° NE
Intercosmos 25 Rocket 4.3 19:58:33 10° N 20:05:41 67° ENE 20:09:59 10° SSE
Cosmos 1500 Rocket 3.6 20:03:52 10° N 20:08:18 88° W 20:12:40 10° S
Cosmos 1833 Rocket 4.4 20:04:10 10° N 20:08:25 21° NE 20:12:38 10° E
IGS 5A 4.1 20:05:15 10° SE 20:09:06 39° ENE 20:12:59 10° N
Cosmos 2221 3.1 20:06:48 10° SSW 20:11:03 63° W 20:15:23 10° N
BREEZE-M R/B 2.8 20:09:22 10° SSW 20:11:47 27° SSE 20:13:56 10° E
S3M 4.3 20:05:49 10° SSE 20:11:55 51° E 20:18:01 10° NNE
USA 186 3.7 20:11:26 10° SSW 20:13:33 22° W 20:15:34 10° NW
FALCON 9 DEB 4.3 20:14:33 10° W 20:17:12 27° SW 20:19:50 10° SSE
USA 215 4.5 20:14:32 10° ENE 20:20:33 41° N 20:26:35 10° WNW
Cosmos 1933 3.9 20:18:32 10° SSE 20:22:16 38° E 20:26:02 10° NNE
USA 305 4.3 20:18:43 10° WNW 20:22:42 36° N 20:26:41 10° ENE
USA 245 4.1 20:23:48 12° E 20:24:54 15° ENE 20:26:17 10° NNE
Cosmos 1242 Rocket 3.3 20:24:31 10° SSE 20:27:46 33° E 20:31:00 10° NNE
OBJECT-B 2.8 20:25:19 10° SSW 20:28:10 28° W 20:31:03 10° NW
Cosmos 1553 Rocket 4.1 20:24:22 10° S 20:30:30 86° W 20:36:47 10° N
BREEZE M DEB (TANK) 2.6 20:24:38 10° W 20:31:23 69° N 20:33:54 10° E
Cosmos 1437 Rocket 2.7 20:27:48 10° S 20:31:40 86° E 20:35:38 10° NNE
FALCON 9 DEB 4.5 20:29:42 10° W 20:32:16 25° SW 20:34:36 12° SSE
Resurs 01 Rocket 1.6 20:30:08 10° SSE 20:34:36 83° ENE 20:39:04 10° NNW
OE (NEXTSAT) 4.3 20:33:25 10° W 20:36:50 63° S 20:39:58 12° E
DELTA 2 R/B (1) 4.5 20:33:04 10° WSW 20:37:58 32° S 20:41:52 15° SE
Spot 2 Rocket 4.2 20:34:12 13° SE 20:38:19 40° ENE 20:43:01 10° N
Sich 1 3.0 20:34:16 10° N 20:38:37 81° E 20:42:58 10° SSE
COSMOS 2406 4.4 20:34:09 10° NNW 20:39:11 31° NE 20:43:43 12° ESE
Cosmos 2082 Rocket 4.0 20:37:30 10° N 20:41:37 20° NE 20:45:43 10° E
Meteor 1-20 Rocket 4.2 20:35:59 10° N 20:41:40 80° ENE 20:47:10 10° SSE
USA 306 4.2 20:37:56 10° WNW 20:41:56 38° N 20:45:57 10° ENE
BREEZE-M DEB (TANK) 4.5 20:43:12 10° SW 20:43:57 11° SSW 20:44:48 10° SSW
CZ-4C R/B 3.5 20:37:20 10° NW 20:44:03 51° NE 20:51:18 13° ESE
Cosmos 1500 4.4 20:41:55 10° NNE 20:45:11 27° ENE 20:47:10 17° ESE
Cosmos 1782 3.4 20:43:16 14° SSE 20:46:21 38° E 20:50:04 10° NNE
ERS-1 Rocket 3.8 20:50:52 17° SE 20:54:16 37° ENE 20:58:53 10° N
Cosmos 1503 Rocket 3.9 20:50:55 10° S 20:56:02 68° ESE 21:01:13 10° NNE
SPOT 5 3.8 20:52:52 17° SE 20:56:15 38° ENE 21:01:06 10° N
Intercosmos 24 3.9 20:54:41 10° SSW 20:58:30 70° W 21:02:04 10° N
USA 290 2.6 20:57:43 10° NNW 21:00:55 58° WSW 21:02:58 20° S
Cosmos 1151 Rocket 3.1 20:58:03 14° S 21:01:45 59° E 21:06:04 10° NNE
CREW DRAGON DEMO-1 DEB 3.9 21:00:05 10° WNW 21:02:35 35° N 21:04:38 13° ENE
Cosmos 1602 3.6 20:59:48 10° N 21:03:41 86° E 21:06:19 20° S
Terra 2.9 21:02:23 18° ESE 21:05:04 32° ENE 21:09:17 10° N
USA 307 4.0 21:03:18 10° WNW 21:07:23 42° NNE 21:11:25 10° E
Cosmos 2278 Rocket 3.1 21:05:44 20° SE 21:08:16 28° ESE 21:12:59 10° NE
CZ-2C R/B 3.7 21:07:54 10° NNE 21:12:24 88° WNW 21:16:56 10° SSW
SL-4 R/B 4.0 21:15:32 10° W 21:18:55 21° SW 21:21:08 15° S
Cosmos 1515 Rocket 4.1 21:17:35 26° SE 21:19:31 42° E 21:23:40 10° NNE
X-37B 1.1 21:16:38 10° W 21:19:40 41° SSW 21:20:09 37° SSE
Cosmos 1844 Rocket 3.6 21:14:58 10° SW 21:20:23 51° NW 21:25:51 10° NNE
Cosmos 2084 3.7 21:17:53 17° S 21:20:38 40° ESE 21:24:37 10° NE
SPOT 1/Viking Rocket 3.7 21:16:47 17° S 21:20:52 71° WSW 21:26:05 10° NNW
USA 308 3.8 21:16:48 10° WNW 21:20:56 45° NNE 21:24:24 14° E
SWARM A 4.3 21:18:41 10° N 21:21:59 60° E 21:23:01 38° SSE
ARIANE 5 R/B 2.5 21:20:40 24° SSE 21:23:13 90° WSW 21:27:34 10° NNW
JB-3 4.2 21:22:08 10° NNE 21:26:03 65° E 21:27:56 28° S
Cosmos 1437 2.3 21:25:46 51° SSE 21:26:19 70° E 21:29:09 10° NNE
Cosmos 1354 Rocket 4.1 21:22:07 10° SSW 21:27:21 79° WNW 21:32:38 10° NNE
Cosmos 1633 Rocket 3.4 21:24:07 10° NNW 21:28:29 62° W 21:31:23 20° S
Cosmos 1812 2.8 21:31:31 36° SSE 21:32:51 57° E 21:36:39 10° NNE
Cosmos 1470 Rocket 3.6 21:33:15 10° N 21:37:45 86° W 21:39:57 30° S
Cosmos 2184 Rocket 4.2 21:31:54 10° N 21:38:04 59° ENE 21:41:19 28° SE
Meteor 1-5 Rocket 4.0 21:33:49 10° N 21:39:17 78° ENE 21:42:00 30° SSE
Cosmos 1709 Rocket 4.5 21:33:25 10° NNW 21:39:23 55° W 21:44:27 14° SSW
Cosmos 1328 Rocket 3.8 21:36:50 17° SSW 21:40:16 70° WNW 21:44:42 10° N
NOSS 3-4 (A) 4.2 21:35:08 10° NW 21:41:53 58° NE 21:47:02 21° ESE
NOSS 3-4 (C) 4.2 21:35:15 10° NW 21:41:59 57° NE 21:47:09 21° ESE
ATLAS 5 CENTAUR R/B 2.9 21:38:11 10° NW 21:43:37 48° WSW 21:47:13 24° S
Cosmos 2074 Rocket 4.0 21:39:46 10° N 21:46:05 70° E 21:49:23 30° SSE
CARTOSAT-1 4.0 21:44:08 27° S 21:46:20 57° W 21:50:37 10° NNW
Cosmos 1666 2.5 21:47:39 10° N 21:51:25 78° E 21:52:11 53° SSE
NOSS 3-3 (A) 3.8 21:45:44 10° SW 21:51:30 87° SE 21:58:11 10° NE
NOSS 3-3 (C) 3.8 21:45:50 10° SW 21:51:38 86° SE 21:58:17 10° NE
Cosmos 1933 Rocket 3.4 21:47:57 10° N 21:52:19 89° ENE 21:53:49 41° S
Cosmos 1833 Rocket 2.6 21:47:26 10° NNW 21:53:08 89° WSW 21:55:42 34° SSE
Nadezhda 1 Rocket 4.4 21:51:52 31° SE 21:54:32 48° E 22:00:29 10° NNE
ATLAS 2AS CENTAUR R/B 3.6 21:48:11 10° NW 21:55:24 47° NE 22:00:32 18° ESE
Cosmos 1743 4.4 21:53:34 10° NNE 21:56:28 20° ENE 21:56:52 20° ENE
BREEZE-M DEB (TANK) 2.3 21:56:36 10° WNW 21:57:58 39° WNW 21:57:58 39° WNW
BREEZE-M DEB (TANK) 4.0 21:51:45 10° W 22:01:24 58° NNW 22:04:22 10° ENE
Cosmos 1538 Rocket 4.0 21:56:24 10° NNW 22:01:49 85° WSW 22:03:56 38° SSE
USA 215 4.1 21:56:38 10° E 22:02:49 47° NNE 22:09:01 10° NW
USA 305 3.1 21:58:52 10° WNW 22:03:08 68° NNE 22:04:41 37° E
Iridium 4 Rocket 3.8 22:01:48 29° S 22:04:54 85° W 22:10:52 10° N
Resurs 01 Rocket 4.3 22:10:05 10° WSW 22:11:41 12° W 22:13:17 10° WNW
Cosmos 158 Rocket 3.8 22:09:11 10° NNW 22:14:06 78° ENE 22:15:27 48° SE
Cosmos 1733 Rocket 4.4 22:11:50 10° NNE 22:15:25 25° ENE 22:16:02 24° E
SJ 16-02 1.2 22:15:15 50° S 22:16:23 80° ESE 22:20:51 10° NNE
Cosmos 2228 Rocket 3.0 22:17:34 56° SSE 22:18:25 74° E 22:22:52 10° NNE
Cosmos 1680 Rocket 4.0 22:14:30 10° NNW 22:19:43 51° ENE 22:21:27 36° ESE
Meteor 1-27 Rocket 3.8 22:18:38 40° SSE 22:20:39 65° E 22:26:30 10° NNE
USA 306 2.8 22:17:59 10° WNW 22:22:17 84° NNE 22:23:05 58° ESE
COSMOS 2406 3.6 22:18:16 10° NW 22:23:46 53° WSW 22:25:47 36° SSW
Cosmos 2082 Rocket 2.1 22:20:52 10° NNW 22:26:32 88° ENE 22:28:19 46° SSE
H-2A R/B 4.1 22:28:39 10° N 22:32:45 52° WNW 22:34:17 33° SW
CZ-4C R/B 3.3 22:25:50 10° NW 22:32:56 55° WSW 22:36:28 34° S
SL-24 DEB 4.4 22:31:53 45° SSW 22:33:05 63° W 22:37:40 10° N
ERS-1 Rocket 4.3 22:30:51 22° SW 22:33:06 32° W 22:37:36 10° NNW
Gbstr 26 Del rocket 4.5 22:25:40 10° WNW 22:33:12 66° N 22:39:24 10° E
BREEZE-M R/B 4.3 22:31:08 10° W 22:31:52 18° W 22:31:52 18° W
SPOT 5 4.3 22:32:05 22° SW 22:34:22 32° W 22:39:03 10° NNW
Cosmos 1271 Rocket 3.4 22:35:28 42° WSW 22:36:23 53° WNW 22:40:20 10° N
Terra 3.0 22:41:15 28° SW 22:42:45 35° W 22:47:08 10° NNW
Meteor 1-11 Rocket 4.1 22:37:10 10° NNW 22:43:03 62° W 22:45:14 38° SSW
Okean 1 4.4 22:46:34 34° ENE 22:46:34 34° ENE 22:49:41 10° NNE
USA 307 2.8 22:43:20 10° WNW 22:47:31 74° SW 22:47:31 74° SW
Cosmos 1340 Rocket 2.7 22:45:32 10° N 22:49:39 86° E 22:49:40 86° E
Cosmos 2278 Rocket 2.8 22:47:29 15° SW 22:52:02 53° WNW 22:57:36 10° NNE
Spot 4 3.8 22:53:27 60° SE 22:54:14 74° ENE 22:59:06 10° N
Cosmos 1515 4.4 22:55:28 44° ENE 22:55:28 44° ENE 22:58:27 10° NNE
Cosmos 923 Rocket 4.1 22:49:39 10° NNW 22:54:53 68° WSW 22:55:53 55° SSW
Cosmos 1544 3.4 22:52:01 10° NNW 22:55:12 60° NW 22:55:12 60° NW
Cosmos 1862 Rocket 4.2 22:57:00 42° E 22:57:00 42° E 23:00:48 10° NNE
Cosmos 1898 Rocket 3.5 22:57:39 58° SE 22:58:16 63° ESE 23:03:33 10° NNE
Cosmos 1536 3.5 22:55:28 10° NNW 22:59:21 45° W 22:59:30 45° W
Cosmos 1869 Rocket 4.3 22:56:28 10° NNW 23:00:32 41° W 23:01:03 39° WSW
USA 308 3.2 22:56:50 10° WNW 23:00:30 54° WSW 23:00:30 54° WSW
Cosmos 2369 Rocket 3.6 23:03:27 23° E 23:03:27 23° E 23:07:32 10° NE
Meteor 2-9 Rocket 4.4 23:03:28 10° N 23:09:17 66° ENE 23:10:35 51° SE
SL-8 Rocket 4.0 23:03:26 10° N 23:09:48 80° E 23:11:34 50° SSE
Cosmos 1943 Rocket 2.4 23:11:54 49° ESE 23:12:14 49° ESE 23:17:38 10° NE
Cosmos 1975 3.5 23:08:38 10° N 23:12:12 44° ENE 23:12:12 44° ENE
Cosmos 2084 Rocket 4.1 23:08:30 10° NW 23:12:40 51° NE 23:13:20 46° ENE
ALOS 2 2.6 23:16:05 67° E 23:16:13 68° ENE 23:20:35 10° N
DNEPR-1 R/B 4.3 23:19:57 51° ESE 23:19:57 51° ESE 23:24:48 10° NE
Cosmos 44 3.4 23:14:27 10° NW 23:19:57 88° NE 23:20:48 64° SE
Cosmos 1707 Rocket 3.8 23:20:01 58° W 23:20:20 60° WNW 23:24:42 10° N
Meteor 2-4 Rocket 4.3 23:20:31 40° ESE 23:21:18 43° E 23:26:38 10° NNE
Cosmos 990 Rocket 4.1 23:20:02 50° SW 23:21:20 71° WNW 23:26:36 10° NNE
Okean 1-7 4.2 23:30:15 31° ENE 23:30:15 31° ENE 23:33:37 10° NNE
Cosmos 372 Rocket 4.3 23:30:36 49° ESE 23:30:36 49° ESE 23:35:28 10° NNE
Cosmos 1743 4.0 23:28:49 10° NNW 23:31:55 33° WNW 23:31:55 33° WNW
NOSS 3-4 (A) 4.4 23:26:12 10° NW 23:32:47 43° WSW 23:34:28 38° SSW
NOSS 3-4 (C) 4.4 23:26:18 10° NW 23:32:54 43° WSW 23:34:35 38° SSW
Cosmos 2112 Rocket 4.4 23:28:29 10° NNW 23:33:38 49° WSW 23:34:10 48° SW
Meteor 1-18 Rocket 4.1 23:33:04 62° S 23:34:02 81° E 23:39:40 10° NNE
Cosmos 1238 Rocket 3.9 23:29:05 10° NNW 23:35:24 65° W 23:36:39 52° SW
SL-24 R/B - RUBIN 2 3.8 23:31:51 10° NW 23:37:20 67° WSW 23:37:28 67° SW
Cosmos 864 Rocket 4.4 23:32:21 10° N 23:38:33 82° W 23:39:57 56° S
SeaSat 1 3.2 23:34:08 10° NE 23:38:19 37° E 23:38:19 37° E
Cosmos 2242 Rocket 4.2 23:40:22 45° E 23:40:22 45° E 23:44:20 10° NNE
Cosmos 1959 Rocket 4.4 23:35:09 10° NNW 23:41:25 76° W 23:42:51 54° SSW
USA 215 3.2 23:42:21 34° SE 23:45:32 90° SW 23:52:07 10° NW
ATLAS 2AS CENTAUR R/B 2.9 23:39:26 10° NW 23:46:34 55° WSW 23:47:57 48° SSW
Cosmos 2297 3.8 23:45:51 48° SW 23:47:25 72° WNW 23:53:07 10° NNE
Cosmos 1733 Rocket 4.1 23:49:22 10° NNW 23:53:07 34° W 23:53:07 34° W
SJ 16-02 4.0 23:52:58 10° W 23:55:33 15° NW 23:58:10 10° NNW
